This is the latest recevied weather packets stored in our database for station/object DJ4CK-1. If no packets are shown the sender has not sent any weather packets the latest 10 day(s).
| Time | Temp. | Humidity | Pressure | Rain* | Wind** | Luminosity | Snow |
|---|---|---|---|---|---|---|---|
| 1777718884 | 22.22° C | 21% | 1023.2 hPa | 0 mm | - | - | - |
| 1777718824 | 22.22° C | 21% | 1023.1 hPa | 0 mm | - | - | - |
| 1777718763 | 21.67° C | 19% | 1023.2 hPa | 0 mm | - | - | - |
| 1777718703 | 22.22° C | 20% | 1023.2 hPa | 0 mm | - | - | - |
| 1777718644 | 22.22° C | 20% | 1023.2 hPa | 0 mm | - | - | - |
| 1777718583 | 22.22° C | 21% | 1023.2 hPa | 0 mm | - | - | - |
| 1777718523 | 22.22° C | 21% | 1023.3 hPa | 0 mm | - | - | - |
| 1777718464 | 22.22° C | 21% | 1023.3 hPa | 0 mm | - | - | - |
| 1777718403 | 22.22° C | 21% | 1023.3 hPa | 0 mm | - | - | - |
| 1777718343 | 21.67° C | 21% | 1023.2 hPa | 0 mm | - | - | - |
| 1777718284 | 21.67° C | 23% | 1023.2 hPa | 0 mm | - | - | - |
| 1777718224 | 22.22° C | 22% | 1023.3 hPa | 0 mm | - | - | - |
| 1777718163 | 22.22° C | 25% | 1023.3 hPa | 0 mm | - | - | - |
| 1777718103 | 22.22° C | 23% | 1023.3 hPa | 0 mm | - | - | - |
| 1777717983 | 22.22° C | 23% | 1023.3 hPa | 0 mm | - | - | - |
| 1777717923 | 22.22° C | 23% | 1023.3 hPa | 0 mm | - | - | - |
| 1777717864 | 22.22° C | 22% | 1023.3 hPa | 0 mm | - | - | - |
| 1777717803 | 22.22° C | 23% | 1023.3 hPa | 0 mm | - | - | - |
| 1777717743 | 22.22° C | 24% | 1023.3 hPa | 0 mm | - | - | - |
| 1777717684 | 22.22° C | 23% | 1023.5 hPa | 0 mm | - | - | - |
| 1777717623 | 22.22° C | 25% | 1023.5 hPa | 0 mm | - | - | - |
| 1777717563 | 22.22° C | 24% | 1023.5 hPa | 0 mm | - | - | - |
| 1777717504 | 21.67° C | 24% | 1023.5 hPa | 0 mm | - | - | - |
| 1777717443 | 21.67° C | 23% | 1023.5 hPa | 0 mm | - | - | - |
| 1777717383 | 22.22° C | 25% | 1023.5 hPa | 0 mm | - | - | - |
* Rain latest hour (hover to see other rain measurements)
** Current wind speed in m/s (hover to see current wind gust speed)